Showing default

CUAVA-2, 60527

Orbit data source: Space-Track

CUAVA-2, 60527 is an Australian payload satellite in SSO that was launched on Fri, 16 Aug 2024 UTC via an FALCON 9 launch vehicle from the Air Force Western Test Range (AFWTR). Payload-class satellites include a variety of spacecraft equipped with specific instruments for various scientific and technological missions. These include communications satellites like Starlink; space stations such as the ISS; scientific satellites like the Hubble; Earth observation satellites from companies like Planet Labs, Umbra, and HawkEye 360; GPS; miniature CubeSats for education and research; and military/defense satellites.

Loading next visibility...
Identifier
60527, 2024-149BM
Orbit
SSO
Country
Flag of AUAU / AUS
Related business
Manufacturer
USYD/UNSW
Mission
Operational Amateur Technology
Bus & Motor
CUBESAT 6U, Unknown motor
Mass
10 kg wet, 10 kg dry
Launch date (UTC)
2024-08-16 (2 years ago)
Launch vehicle
FALCON 9
Launch site
Air Force Western Test Range (AFWTR)
Object type
Payload
Rocket body
Debris
Shape & HBR
Box, 0.1 m
Radar Cross Section
0.080 m², Medium (>0.1 m² and < 1m²)

Expand to show TLE details & history
Last TLE update: 6 hours ago

TLE from 6 hours ago
0 CUAVA-2
1 60527U 24149BM  26126.18332675  .00012152  00000-0  35778-3 0  9996
2 60527  97.3724 207.6638 0008142  87.1667 273.0508 15.35170839 95726
Epoch: 2026-05-06T04:23Z
TLE epoch observation values (Epoch: 2026-05-06T04:23:59.431Z)
Latitude
-0.00003°
Longitude
-82.3813°
Altitude
463.233 km
Speed
7.635 km/s
True Right ascension
13h 50m 39s
True Declination
0° 00' 00"
Sunlit
Object was in full shadow at epoch
Visualization orbit readout
Latitude
Unknown
Longitude
Unknown
Altitude
Unknown
Speed
Unknown
Apparent Right ascension
Unknown
Apparent Declination
Unknown
Sunlit
N/A
Visualization observer readout
Local Sidereal Time
18:24:12
Azimuth
Unknown
Elevation
Unknown
Doppler factor
Unknown
Orbital elements
Apogee altitude
462.923 km
Perigee altitude
451.792 km
Semi-major axis
6,835.494 km
Eccentricity
0.00081
Inclination
97.3724°
RAAN
207.6638°
Arg. of periapsis
87.1667°
True anomaly
272.95763°
Mean anomaly
273.0508°
Eccentric anomaly
273.00421°
Mean motion
3.8405 °/min
Orbital period
93.74 mins
BSTAR
0.00035778
Loading maneuver chart data...
Computing Atmospheric mass density...
Loading historical data...
Loading historical data...
Loading historical data...
Loading historical data...
Loading historical data...
Loading historical data...
Loading historical data...

Documentation

Showing up to 5 results
|